Regional Weather Roundup
Issued by NWS Cleveland, OH

Home | Current Version | Previous Version | Text Only | Print | Product List | Glossary Off
Versions: 1 2 3 4 5 6 7 8 9 10 11 12 13 14 15 16 17 18 19 20 21 22 23 24 25 26 27 28 29 30 31 32 33 34 35 36 37 38 39 40 41 42 43 44 45 46 47 48 49 50

000
ASUS41 KCLE 301712
RWRCLE
OHIO REGIONAL WEATHER ROUNDUP
NATIONAL WEATHER SERVICE WILMINGTON, OH
100 PM EDT TUE AUG 30 2016

NOTE: "FAIR" INDICATES FEW OR NO CLOUDS BELOW 12,000 FEET WITH NO
SIGNIFICANT WEATHER AND/OR OBSTRUCTIONS TO VISIBILITY.

OHZ001>008-015>018-024>027-034-035-043-044-301800-
   NORTHWEST OHIO

CITY           SKY/WX    TMP DP  RH WIND       PRES   REMARKS
DEFIANCE       FAIR      82  64  54 CALM      30.16S
FINDLAY        FAIR      84  62  47 CALM      30.15F
TOLEDO EXPRESS FAIR      80  60  50 SW3       30.15F
TOLEDO EXEC    FAIR      81  58  45 S3        30.16S
LIMA           FAIR      82  69  64 CALM      30.16F
$$

OHZ009>014-019>023-028>033-038-089-301800-
   NORTHEAST OHIO

CITY           SKY/WX    TMP DP  RH WIND       PRES   REMARKS
CLE-HOPKINS    FAIR      86  50  28 VRB3      30.17F
CLE-LAKEFRONT  FAIR      82  60  47 N6        30.14F
CUY CO. ARPT   MOSUNNY   86  59  39 SE3       30.16F
LORAIN-ELYRIA  FAIR      81  52  36 VRB3      30.16F
ASHTABULA      FAIR      79  61  53 SE7       30.17F
AKRON-CANTON   FAIR      82  49  31 VRB5      30.18F
WOOSTER        FAIR      80  61  52 CALM      30.18F
MANSFIELD      FAIR      84  60  44 NW3       30.18F
YOUNGSTOWN     FAIR      80  55  42 N5        30.18F
$$

OHZ042-051>053-060>062-070>072-077>081-301800-
  SOUTHWEST OHIO

CITY           SKY/WX    TMP DP  RH WIND       PRES   REMARKS
CINC-COVINGTON FAIR      85  67  54 VRB5      30.15F
CINC-LUNKEN    FAIR      85  69  58 VRB5      30.14F
HAMILTON       FAIR      87  65  47 CALM      30.15F
DAYTON         PTSUNNY   84  65  52 CALM      30.17F
WRIGHT-PAT AFB FAIR      84  63  49 VRB1      30.15F
DAYTON GENERAL FAIR      84  64  50 CALM      30.15F
WILMINGTON     FAIR      83  63  50 E3        30.16F
$$

OHZ036-037-039>041-045>050-054>059-063>069-073>076-082>088-301800-
  CENTRAL AND SOUTHEAST OHIO

CITY           SKY/WX    TMP DP  RH WIND       PRES   REMARKS
COLUMBUS       FAIR      84  61  45 N5        30.15F
OSU AIRPORT    FAIR      85  61  44 VRB3      30.15F
BOLTON FIELD   SUNNY     82  66  57 CALM      30.17F
RICKENBACK AFB FAIR      82  64  54 CALM      30.15F
NEWARK         FAIR      85  61  44 CALM      30.16F
MARION         FAIR      83  61  47 SW7       30.17F
LANCASTER      FAIR      85  59  41 VRB3      30.16F
ZANESVILLE     FAIR      85  60  42 NW5       30.15F
NEW PHILLY     FAIR      86  52  30 VRB3      30.16F
$$




USA.gov is the U.S. government's official web portal to all federal, state and local government web resources and services.